Maria — SV7156 — position and weather

sailwx.info

Track history (hours):
 
Tides and Currents Weather Stations Pressure Air Temp Water Temp Dewpoint Dewpoint Depression Visibility Wind Speed Wind Dir Waves Ship Positions

Maria

Last reported at 2014-Oct-22 18:09 UTC. Time now 2014-Oct-23 06:00 UTC.
Position N 37°58' E 023°35'.

Length 74 m; draft 4.5 m.

Type: Ship. MMSI: 237493000.

Date/timePositionNaut miles runAvg speedWind from/ knotsBaromVisibWave heightAir tempDewpointWater temp
2014-Oct-22 18:09N 37°58' E 023°35'2 3.5
2014-Oct-22 17:34N 37°59' E 023°33'3 3.1
2014-Oct-22 16:28N 38°02' E 023°36'0 0.0
2014-Oct-22 15:33N 38°02' E 023°36'0 0.0
2014-Oct-22 14:33N 38°02' E 023°36'0 0.0
2014-Oct-22 13:31N 38°02' E 023°36'0 0.0
2014-Oct-22 12:34N 38°02' E 023°36'0 0.0
2014-Oct-22 11:33N 38°02' E 023°36'0 0.0
2014-Oct-22 10:33N 38°02' E 023°36'0 0.0
2014-Oct-22 09:33N 38°02' E 023°36'1 0.7
2014-Oct-22 08:33N 38°02' E 023°35'0 0.0
2014-Oct-22 07:33N 38°02' E 023°35'0 0.0
2014-Oct-22 06:33N 38°01' E 023°35'4 0.3
2014-Oct-21 17:05N 37°58' E 023°35'1 1.8
2014-Oct-21 16:33N 37°57' E 023°36'0 0.0
2014-Oct-21 15:33N 37°57' E 023°36'0 0.0
2014-Oct-21 14:33N 37°57' E 023°36'3 3.0
2014-Oct-21 13:33N 37°55' E 023°33'0 0.0
2014-Oct-21 12:33N 37°55' E 023°33'0 0.0
2014-Oct-21 11:33N 37°55' E 023°33'0 0.0
2014-Oct-21 10:33N 37°55' E 023°33'0 0.0
2014-Oct-21 09:33N 37°55' E 023°33'0 0.0
2014-Oct-21 08:33N 37°55' E 023°33'0 0.1
2014-Oct-21 07:33N 37°55' E 023°33'2 1.7
2014-Oct-21 06:33N 37°56' E 023°35'1 0.2
2014-Oct-20 23:18N 37°58' E 023°35'4 5.8
2014-Oct-20 22:33N 37°53' E 023°33'2 1.7
2014-Oct-20 21:33N 37°52' E 023°32'0 0.0
2014-Oct-20 20:33N 37°52' E 023°32'0 0.0
2014-Oct-20 19:33N 37°52' E 023°32'5 5.2
2014-Oct-20 18:33N 37°57' E 023°35'1 1.0
2014-Oct-20 17:33N 37°58' E 023°35'0 0.0
2014-Oct-20 16:33N 37°58' E 023°35'0 0.0
2014-Oct-20 15:33N 37°58' E 023°35'4 4.0
2014-Oct-20 14:33N 38°02' E 023°35'0 0.3
2014-Oct-20 13:30N 38°02' E 023°36'0 0.0
2014-Oct-20 12:33N 38°02' E 023°36'0 0.0
2014-Oct-20 11:33N 38°02' E 023°36'3 2.5
2014-Oct-20 10:33N 38°02' E 023°32'0 0.0
2014-Oct-20 09:33N 38°02' E 023°32'0 0.0
2014-Oct-20 08:33N 38°02' E 023°32'2 2.2
2014-Oct-20 07:33N 37°60' E 023°33'3 0.2
2014-Oct-19 15:08N 37°58' E 023°35'4 6.3
2014-Oct-19 14:33N 37°54' E 023°34'2 2.5
2014-Oct-19 13:33N 37°52' E 023°32'0 0.1
2014-Oct-19 12:33N 37°52' E 023°33'0 0.1
2014-Oct-19 11:33N 37°52' E 023°32'0 0.0
2014-Oct-19 10:33N 37°52' E 023°32'0 0.1
2014-Oct-19 09:33N 37°52' E 023°32'6 6.0
2014-Oct-19 08:33N 37°57' E 023°35'0 0.0
2014-Oct-17 14:28N 37°58' E 023°35'3 3.4
2014-Oct-17 13:33N 37°56' E 023°38'0 0.0
2014-Oct-17 12:33N 37°56' E 023°38'0 0.0
2014-Oct-17 11:33N 37°56' E 023°38'0 0.1
2014-Oct-17 10:33N 37°56' E 023°38'3 3.1
2014-Oct-17 09:33N 37°58' E 023°35'0 0.0
2014-Oct-17 08:33N 37°58' E 023°35'0 0.0
2014-Oct-17 07:33N 37°58' E 023°35'2 1.6
2014-Oct-17 06:33N 37°58' E 023°33'4 4.1
2014-Oct-17 05:31N 38°02' E 023°36'0 0.0
2014-Oct-17 04:33N 38°02' E 023°36'0 0.0
2014-Oct-17 03:33N 38°02' E 023°36'0 0.0
2014-Oct-17 02:33N 38°02' E 023°36'0 0.0
2014-Oct-17 00:32N 38°02' E 023°36'1 0.5
2014-Oct-16 23:05N 38°01' E 023°35'0 0.0
2014-Oct-16 22:33N 38°01' E 023°35'0 0.0
2014-Oct-16 21:33N 38°01' E 023°35'0 0.1
2014-Oct-16 20:33N 38°01' E 023°35'0 0.0
2014-Oct-16 18:21N 38°01' E 023°35'0 0.0
2014-Oct-16 17:33N 38°01' E 023°35'0 0.0
2014-Oct-16 16:33N 38°01' E 023°35'4 4.1
2014-Oct-16 15:33N 37°58' E 023°33'2 0.1
2014-Oct-15 22:33N 37°56' E 023°35'2 2.1
2014-Oct-15 21:33N 37°55' E 023°33'0 0.1
2014-Oct-15 20:33N 37°55' E 023°33'0 0.1
2014-Oct-15 19:33N 37°55' E 023°33'1 0.7
2014-Oct-15 18:33N 37°54' E 023°33'4 3.7
2014-Oct-15 17:33N 37°51' E 023°31'0 0.0
2014-Oct-15 16:33N 37°51' E 023°31'0 0.0
2014-Oct-15 15:33N 37°51' E 023°31'0 0.2
2014-Oct-15 14:33N 37°51' E 023°30'6 6.5
2014-Oct-15 13:33N 37°57' E 023°35'1 0.7
2014-Oct-15 12:33N 37°58' E 023°35'0 0.0
2014-Oct-15 10:33N 37°58' E 023°35'0 0.0
2014-Oct-15 09:33N 37°58' E 023°35'0 0.0
2014-Oct-15 08:33N 37°58' E 023°35'0 0.3
2014-Oct-15 07:33N 37°57' E 023°34'4 4.3
2014-Oct-15 06:33N 38°02' E 023°36'0 0.0
2014-Oct-15 05:33N 38°02' E 023°36'0 0.0
2014-Oct-15 04:33N 38°02' E 023°36'0 0.0
2014-Oct-15 03:33N 38°02' E 023°36'0 0.0
2014-Oct-15 02:33N 38°02' E 023°36'1 0.8
2014-Oct-15 01:33N 38°01' E 023°35'0 0.0
2014-Oct-15 00:33N 38°01' E 023°35'0 0.0
2014-Oct-14 23:33N 38°01' E 023°35'0 0.0
2014-Oct-14 22:33N 38°01' E 023°35'0 0.0
2014-Oct-14 21:33N 38°01' E 023°35'0 0.0
2014-Oct-14 20:33N 38°01' E 023°35'6 5.5
2014-Oct-14 19:33N 38°00' E 023°28'5 5.0
2014-Oct-14 18:33N 37°57' E 023°24'6 5.6
2014-Oct-14 17:33N 37°52' E 023°27'7 7.4
2014-Oct-14 16:33N 37°56' E 023°35'1 0.1
2014-Oct-14 06:34N 37°58' E 023°35'0 0.0
2014-Oct-14 05:33N 37°58' E 023°35'0 0.0
2014-Oct-14 04:33N 37°58' E 023°35'2 2.3
2014-Oct-14 03:34N 37°59' E 023°33'2 1.9
2014-Oct-14 02:33N 38°01' E 023°34'0 0.0
2014-Oct-14 01:22N 38°01' E 023°34'0 0.0
2014-Oct-14 00:20N 38°01' E 023°34'0 0.0
2014-Oct-13 23:33N 38°01' E 023°34'0 0.0
2014-Oct-13 22:31N 38°01' E 023°34'1 1.3
2014-Oct-13 21:33N 38°02' E 023°36'0 0.0
2014-Oct-13 20:34N 38°02' E 023°36'0 0.0
2014-Oct-13 19:34N 38°02' E 023°36'0 0.5
2014-Oct-13 18:33N 38°02' E 023°35'0 0.1
2014-Oct-13 17:33N 38°02' E 023°35'4 4.5
2014-Oct-13 16:33N 37°58' E 023°33'  
Track history (hours):
 
Tides and Currents Weather Stations Pressure Air Temp Water Temp Dewpoint Dewpoint Depression Visibility Wind Speed Wind Dir Waves Ship Positions

Maria

Last reported at 2014-Oct-22 18:09 UTC. Time now 2014-Oct-23 06:00 UTC.
Position N 37°58' E 023°35'.

Length 74 m; draft 4.5 m.

Type: Ship. MMSI: 237493000.

Date/timePositionNaut miles runAvg speedWind from/ knotsBaromVisibWave heightAir tempDewpointWater temp
2014-Oct-22 18:09N 37°58' E 023°35'2 3.5
2014-Oct-22 17:34N 37°59' E 023°33'3 3.1
2014-Oct-22 16:28N 38°02' E 023°36'0 0.0
2014-Oct-22 15:33N 38°02' E 023°36'0 0.0
2014-Oct-22 14:33N 38°02' E 023°36'0 0.0
2014-Oct-22 13:31N 38°02' E 023°36'0 0.0
2014-Oct-22 12:34N 38°02' E 023°36'0 0.0
2014-Oct-22 11:33N 38°02' E 023°36'0 0.0
2014-Oct-22 10:33N 38°02' E 023°36'0 0.0
2014-Oct-22 09:33N 38°02' E 023°36'1 0.7
2014-Oct-22 08:33N 38°02' E 023°35'0 0.0
2014-Oct-22 07:33N 38°02' E 023°35'0 0.0
2014-Oct-22 06:33N 38°01' E 023°35'4 0.3
2014-Oct-21 17:05N 37°58' E 023°35'1 1.8
2014-Oct-21 16:33N 37°57' E 023°36'0 0.0
2014-Oct-21 15:33N 37°57' E 023°36'0 0.0
2014-Oct-21 14:33N 37°57' E 023°36'3 3.0
2014-Oct-21 13:33N 37°55' E 023°33'0 0.0
2014-Oct-21 12:33N 37°55' E 023°33'0 0.0
2014-Oct-21 11:33N 37°55' E 023°33'0 0.0
2014-Oct-21 10:33N 37°55' E 023°33'0 0.0
2014-Oct-21 09:33N 37°55' E 023°33'0 0.0
2014-Oct-21 08:33N 37°55' E 023°33'0 0.1
2014-Oct-21 07:33N 37°55' E 023°33'2 1.7
2014-Oct-21 06:33N 37°56' E 023°35'1 0.2
2014-Oct-20 23:18N 37°58' E 023°35'4 5.8
2014-Oct-20 22:33N 37°53' E 023°33'2 1.7
2014-Oct-20 21:33N 37°52' E 023°32'0 0.0
2014-Oct-20 20:33N 37°52' E 023°32'0 0.0
2014-Oct-20 19:33N 37°52' E 023°32'5 5.2
2014-Oct-20 18:33N 37°57' E 023°35'1 1.0
2014-Oct-20 17:33N 37°58' E 023°35'0 0.0
2014-Oct-20 16:33N 37°58' E 023°35'0 0.0
2014-Oct-20 15:33N 37°58' E 023°35'4 4.0
2014-Oct-20 14:33N 38°02' E 023°35'0 0.3
2014-Oct-20 13:30N 38°02' E 023°36'0 0.0
2014-Oct-20 12:33N 38°02' E 023°36'0 0.0
2014-Oct-20 11:33N 38°02' E 023°36'3 2.5
2014-Oct-20 10:33N 38°02' E 023°32'0 0.0
2014-Oct-20 09:33N 38°02' E 023°32'0 0.0
2014-Oct-20 08:33N 38°02' E 023°32'2 2.2
2014-Oct-20 07:33N 37°60' E 023°33'3 0.2
2014-Oct-19 15:08N 37°58' E 023°35'4 6.3
2014-Oct-19 14:33N 37°54' E 023°34'2 2.5
2014-Oct-19 13:33N 37°52' E 023°32'0 0.1
2014-Oct-19 12:33N 37°52' E 023°33'0 0.1
2014-Oct-19 11:33N 37°52' E 023°32'0 0.0
2014-Oct-19 10:33N 37°52' E 023°32'0 0.1
2014-Oct-19 09:33N 37°52' E 023°32'6 6.0
2014-Oct-19 08:33N 37°57' E 023°35'0 0.0
2014-Oct-17 14:28N 37°58' E 023°35'3 3.4
2014-Oct-17 13:33N 37°56' E 023°38'0 0.0
2014-Oct-17 12:33N 37°56' E 023°38'0 0.0
2014-Oct-17 11:33N 37°56' E 023°38'0 0.1
2014-Oct-17 10:33N 37°56' E 023°38'3 3.1
2014-Oct-17 09:33N 37°58' E 023°35'0 0.0
2014-Oct-17 08:33N 37°58' E 023°35'0 0.0
2014-Oct-17 07:33N 37°58' E 023°35'2 1.6
2014-Oct-17 06:33N 37°58' E 023°33'4 4.1
2014-Oct-17 05:31N 38°02' E 023°36'0 0.0
2014-Oct-17 04:33N 38°02' E 023°36'0 0.0
2014-Oct-17 03:33N 38°02' E 023°36'0 0.0
2014-Oct-17 02:33N 38°02' E 023°36'0 0.0
2014-Oct-17 00:32N 38°02' E 023°36'1 0.5
2014-Oct-16 23:05N 38°01' E 023°35'0 0.0
2014-Oct-16 22:33N 38°01' E 023°35'0 0.0
2014-Oct-16 21:33N 38°01' E 023°35'0 0.1
2014-Oct-16 20:33N 38°01' E 023°35'0 0.0
2014-Oct-16 18:21N 38°01' E 023°35'0 0.0
2014-Oct-16 17:33N 38°01' E 023°35'0 0.0
2014-Oct-16 16:33N 38°01' E 023°35'4 4.1
2014-Oct-16 15:33N 37°58' E 023°33'2 0.1
2014-Oct-15 22:33N 37°56' E 023°35'2 2.1
2014-Oct-15 21:33N 37°55' E 023°33'0 0.1
2014-Oct-15 20:33N 37°55' E 023°33'0 0.1
2014-Oct-15 19:33N 37°55' E 023°33'1 0.7
2014-Oct-15 18:33N 37°54' E 023°33'4 3.7
2014-Oct-15 17:33N 37°51' E 023°31'0 0.0
2014-Oct-15 16:33N 37°51' E 023°31'0 0.0
2014-Oct-15 15:33N 37°51' E 023°31'0 0.2
2014-Oct-15 14:33N 37°51' E 023°30'6 6.5
2014-Oct-15 13:33N 37°57' E 023°35'1 0.7
2014-Oct-15 12:33N 37°58' E 023°35'0 0.0
2014-Oct-15 10:33N 37°58' E 023°35'0 0.0
2014-Oct-15 09:33N 37°58' E 023°35'0 0.0
2014-Oct-15 08:33N 37°58' E 023°35'0 0.3
2014-Oct-15 07:33N 37°57' E 023°34'4 4.3
2014-Oct-15 06:33N 38°02' E 023°36'0 0.0
2014-Oct-15 05:33N 38°02' E 023°36'0 0.0
2014-Oct-15 04:33N 38°02' E 023°36'0 0.0
2014-Oct-15 03:33N 38°02' E 023°36'0 0.0
2014-Oct-15 02:33N 38°02' E 023°36'1 0.8
2014-Oct-15 01:33N 38°01' E 023°35'0 0.0
2014-Oct-15 00:33N 38°01' E 023°35'0 0.0
2014-Oct-14 23:33N 38°01' E 023°35'0 0.0
2014-Oct-14 22:33N 38°01' E 023°35'0 0.0
2014-Oct-14 21:33N 38°01' E 023°35'0 0.0
2014-Oct-14 20:33N 38°01' E 023°35'6 5.5
2014-Oct-14 19:33N 38°00' E 023°28'5 5.0
2014-Oct-14 18:33N 37°57' E 023°24'6 5.6
2014-Oct-14 17:33N 37°52' E 023°27'7 7.4
2014-Oct-14 16:33N 37°56' E 023°35'1 0.1
2014-Oct-14 06:34N 37°58' E 023°35'0 0.0
2014-Oct-14 05:33N 37°58' E 023°35'0 0.0
2014-Oct-14 04:33N 37°58' E 023°35'2 2.3
2014-Oct-14 03:34N 37°59' E 023°33'2 1.9
2014-Oct-14 02:33N 38°01' E 023°34'0 0.0
2014-Oct-14 01:22N 38°01' E 023°34'0 0.0
2014-Oct-14 00:20N 38°01' E 023°34'0 0.0
2014-Oct-13 23:33N 38°01' E 023°34'0 0.0
2014-Oct-13 22:31N 38°01' E 023°34'1 1.3
2014-Oct-13 21:33N 38°02' E 023°36'0 0.0
2014-Oct-13 20:34N 38°02' E 023°36'0 0.0
2014-Oct-13 19:34N 38°02' E 023°36'0 0.5
2014-Oct-13 18:33N 38°02' E 023°35'0 0.1
2014-Oct-13 17:33N 38°02' E 023°35'4 4.5
2014-Oct-13 16:33N 37°58' E 023°33'  

Dump ship's entire track history